Regional Weather Roundup
Issued by NWS Charleston, SC

Current Version | Previous Version | Text Only | Print | Product List | Glossary Off
Versions: 1 2 3 4 5 6 7 8 9 10 11 12 13 14 15 16 17 18 19 20 21 22 23 24 25 26 27 28 29 30 31 32 33 34 35 36 37 38 39 40 41 42 43 44 45 46 47 48 49 50

000
ASUS42 KCHS 011013
RWRCHS

REGIONAL WEATHER ROUNDUP
NATIONAL WEATHER SERVICE CHARLESTON SC
600 AM EDT SUN MAY 01 2016

NOTE: "FAIR" INDICATES FEW OR NO CLOUDS BELOW 12,000 FEET WITH NO
SIGNIFICANT WEATHER AND/OR OBSTRUCTIONS TO VISIBILITY.

NOT ALL STATIONS ARE QUALITY CONTROLLED. USE DATA WITH CAUTION...
ESPECIALLY DEWPOINT OBSERVATIONS.

SCZ027-030-031-034>040-042>050-011100-
...SOUTHEAST SOUTH CAROLINA...

CITY           SKY/WX    TMP DP  RH WIND       PRES   REMARKS
N CHARLESTON   CLOUDY    73  65  75 SE13      30.03S
WATERFRONT PRK   N/A     73  69  87 SE13      30.02F
MOUNT PLEASANT FAIR      73  66  78 SE6       30.04S
JOHNS ISLAND   PTSUNNY   73  68  83 SE9G17    30.04S
PINOPOLIS        N/A     70  66  88 VRB2      29.97R
MONCKS CORNER  FAIR      66  63  88 CALM      30.04R
SUMMERVILLE    PTSUNNY   72  70  94 CALM      30.04S
BEAUFORT MCAS  CLOUDY    76  70  82 SE7       30.03R
BEAUFORT ARPT  PTSUNNY   73  68  83 SE7G17    30.02S
HILTON HEAD IS NOT AVBL
WALTERBORO     CLOUDY    72  72 100 SE3       30.04R
ALLENDALE      CLOUDY    72  68  88 SE3       30.02R

...SOUTHERN MIDLANDS AND PEE DEE...

CITY           SKY/WX    TMP DP  RH WIND       PRES   REMARKS
GEORGETOWN     FAIR      68  64  88 SE8       30.06F
KINGSTREE      FAIR      68  63  83 E7        30.04F
ORANGEBURG     CLOUDY    71  67  87 CALM      30.04R
BARNWELL       CLOUDY    73  73 100 SE7       30.03S
AIKEN          CLOUDY    70  66  88 SE5       30.05S
MANNING        NOT AVBL
COLUMBIA       CLOUDY    72  66  81 SE8       30.02R
SUMTER         CLOUDY    68  65  89 SE7       30.02S
FLORENCE       CLOUDY    65  62  90 SE5       30.06F
MYRTLE BEACH   CLOUDY    72  63  73 SE9       30.09F
N MYRTLE BEACH CLOUDY    71  66  84 S8        30.08S

$$

GAZ063-065-086>088-099>101-113>116-118-119-134>141-150-011100-
...SOUTHEAST GEORGIA...

CITY           SKY/WX    TMP DP  RH WIND       PRES   REMARKS
SAVANNAH ARPT  MOCLDY    74  71  91 S8        30.03R
HUNTER AAF     CLOUDY    75  75 100 SE5       30.01R
FORT STEWART   CLOUDY    73  70  88 SE2       29.99R
STATESBORO     MOCLDY    75  74  97 SE5       30.01S
SYLVANIA       PTSUNNY   72  72  99 CALM      30.02S FOG
CLAXTON        FAIR      72  71  97 CALM      30.02R

...CSRA...CENTRAL AND FAR SOUTHEAST GEORGIA...

CITY           SKY/WX    TMP DP  RH WIND       PRES   REMARKS
THOMSON        CLOUDY    73  72  95 S3        30.04S
AUGUSTA-BUSH   CLOUDY    72  69  90 SE7       30.00S
AUGUSTA-DANIEL CLOUDY    73  67  81 SE5       30.01S
SWAINSBORO     PTSUNNY   72  70  94 SE3       30.02R
VIDALIA        MOCLDY    72  68  88 CALM      30.02R
EASTMAN        FAIR     N/A N/A N/A CALM      30.03R
HAZLEHURST     FAIR      73  73 100 CALM      30.00R
ALMA           CLOUDY    71  70  96 SE6       30.00R
WAYCROSS       CLOUDY    72  70  94 S8        30.00R
JESUP          CLOUDY    75  73  94 CALM      30.02R
BAXLEY         FAIR      72  72 100 SE3       30.01R
BRUNSWICK      MOCLDY    77  72  83 S8        30.02S
SAINT SIMONS   PTCLDY    73  72  96 S5        30.02R

$$

SCZ027-028-034-036>038-045-046-048>050-GAZ119-141-011100-
...LAKE AND SUPPLEMENTAL COASTAL OBSERVATIONS...

STATION/POSITION TIME  TEMP    WIND        PRES    WAVE   SWELL
                       AIR SEA DIR/SP/G            HT/PER HT/PER/DIR
                 (UTC) (F)     (DEG/KT/KT) (MB)    (FT/S) (FT/S/D)
WINYAH BAY       NOT AVBL
LAKE MURRAY      0900   71     110/  5/ 11 1015.9F
ACE BASIN NERRS  0845   74     130/  4     1017.0
FORT PULASKI     0900   74 73  120/  7/ 12 1016.8F
SAPELO ISLAND    0900   74     140/  6     1016.0S

$$

ANZ835-935-AMZ111-154-330-350-352-354-370-450-454-472-011100-
...C-MAN AND BUOY OBSERVATIONS...

STATION/POSITION TIME  TEMP    WIND        PRES    WAVE   SWELL
                       AIR SEA DIR/SP/G            HT/PER HT/PER/DIR
                 (UTC) (F)     (DEG/KT/KT) (MB)    (FT/S) (FT/S/D)
BUOY 41004       0950   74 72  130/ 16/ 17 1017.1F   5/ 6   2/10
BUOY 41008       NOT AVBL
FOLLY BEACH CMAN 0900   73     140/ 14/ 16 1017.5F
CAPERS NEARSHORE 0908   72 71  140/ 14/ 17 1017.0F
FRIPP NEARSHORE  0908   73 73  150/ 14/ 16 1015.9F


STATION/POSITION TIME  TEMP    WIND        PRES    WAVE   SWELL
                       AIR SEA DIR/SP/G            HT/PER HT/PER/DIR
                 (UTC) (F)     (DEG/KT/KT) (MB)    (FT/S) (FT/S/D)
5E ST. MARYS GA  0921      74                N/A     2/10
FRYING PAN BUOY  0900   72 70  150/ 12/ 17 1018.6R
BUOY 41025       0950   72 73  170/ 12/ 16 1019.5R   5/11   5/ 60/11
CAPE LOOKOUT NC  0900   65      60/  7/  8 1019.1R
BUOY 41002       0950   71     100/ 14/ 16 1019.3S   5/ 9   5/ 20/ 9
BUOY 41010       0920   77 77  120/ 12/ 14 1016.5F
ST AUGUSTINE FL  1000   71 70  170/  4/  4 1017.1S


$$




USA.gov is the U.S. government's official web portal to all federal, state and local government web resources and services.